CAPE
413 383 195 284 426 367 302 263 359 482 617 1199 1647 1963 1800 1508 1027 730 413 2 0 0 0 0 0 0 0 0 0 0 0 0 0 0 0 0 0 0 0 0 0 0 0
353 268 325 212 160 46 19 48 129 201 878 1515 1798 1892 1747 1419 977 788 483 32 0 0 0 0 0 0 0 0 0 0 0 0 0 0 0 0 0 0 0 0 0 0 0
492 333 248 219 198 138 21 3 26 249 881 1752 1611 1656 1659 1492 1013 877 679 168 0 0 0 0 0 0 0 0 0 0 0 0 0 0 0 0 0 0 0 0 0 0 0
573 489 418 386 320 228 109 82 305 490 457 1053 1741 1594 1617 1615 1080 936 619 61 0 0 0 0 0 0 0 0 0 0 0 0 0 0 0 0 0 0 0 0 0 0 0
595 544 523 546 713 745 609 602 757 867 891 780 886 1406 1843 1700 1181 878 378 17 0 0 0 0 0 0 0 0 0 0 0 0 0 0 0 0 0 0 0 0 0 0 0
725 724 701 788 840 1022 1043 1043 1009 971 1019 1318 1387 1708 1844 1791 1279 790 393 91 0 0 0 0 0 0 0 0 0 0 0 0 0 0 0 0 0 0 0 0 0 0 0
835 863 863 955 1017 1122 1127 1104 998 932 1145 1474 1531 1799 1847 1764 1250 740 379 94 0 0 0 0 0 0 0 0 0 0 0 0 0 0 0 0 0 0 0 0 0 0 0
921 958 987 1077 1171 1183 1209 1110 1140 1107 1235 1386 1678 1817 1818 1641 1164 695 290 41 0 0 0 0 0 0 0 0 0 0 0 0 0 0 0 0 0 0 0 0 0 0 0
972 995 1048 1127 1256 1283 1210 1182 1247 1286 1306 1505 1877 1790 1692 1489 942 579 211 7 0 0 0 0 0 0 0 0 0 0 0 0 0 0 0 0 0 0 0 0 0 0 0
1019 1039 1099 1256 1237 1241 1284 1384 1427 1486 1465 1643 1782 1767 1658 1425 661 391 126 0 0 0 0 0 0 0 0 0 0 0 0 0 0 0 0 0 0 0 0 0 0 0 0
888 1052 1151 1245 1296 1297 1355 1494 1585 1618 1752 1799 1764 1559 1558 1275 572 142 0 0 0 0 0 0 0 0 0 0 0 0 0 0 0 0 0 0 0 0 0 0 0 0 0
825 941 1051 1200 1299 1432 1531 1613 1652 1717 1801 1892 1837 1499 1199 676 380 39 0 0 0 0 0 0 0 0 0 0 0 0 0 0 0 0 0 0 0 0 0 0 0 0 0
892 804 953 1172 1291 1466 1577 1660 1749 1860 1907 2127 1817 1641 1126 524 154 14 0 0 0 0 0 0 0 0 0 0 0 0 0 0 0 0 0 0 0 0 0 0 0 0 0
773 884 1018 1025 1333 1577 1728 1872 1895 1961 2012 2179 1852 1484 951 475 143 4 0 0 0 0 0 0 0 0 0 0 0 0 0 0 0 0 0 0 0 0 0 0 0 0 0
904 983 1007 1123 1236 1517 1781 1960 2018 2130 2155 2114 2001 1369 701 637 256 76 0 0 0 0 0 0 0 0 0 0 0 0 0 0 0 0 0 0 0 0 0 0 0 0 0
1042 1147 1221 1261 1339 1518 1749 1915 1255 1508 2194 2195 1976 1326 697 547 21 13 0 0 0 0 0 0 0 0 0 0 0 0 0 0 0 0 0 0 0 0 0 0 0 0 0
1458 1453 1508 1674 1799 1913 2044 2178 2210 1275 1209 1898 1878 1109 741 405 46 6 0 0 0 0 0 0 0 0 0 0 0 0 0 0 0 0 0 0 0 0 0 0 0 0 0
1998 1952 2060 1978 2143 2375 2494 2555 2672 2420 2117 1949 524 654 135 280 1 0 0 0 0 0 0 0 0 0 0 0 0 0 0 0 0 0 0 0 0 0 0 0 0 0 0
2839 2767 2732 2898 2828 2776 2821 2921 2859 2454 2015 1407 528 42 0 0 0 0 0 0 0 0 0 0 0 0 0 0 0 0 0 0 0 0 0 0 0 0 0 0 0 0 0
3057 3022 2924 2926 3053 3044 3046 2911 2696 2137 1616 856 1041 568 0 0 0 0 0 0 0 0 0 0 0 0 0 0 0 0 0 0 0 0 0 0 0 0 0 0 0 0 0
3252 3252 3181 3111 2999 3016 2940 2857 2217 1832 1382 1034 829 5 0 0 0 0 0 0 0 0 0 0 0 0 0 0 0 0 0 0 0 0 0 0 0 0 0 0 0 0 0
2306 2861 3053 2974 2886 2853 2728 2263 1609 1505 1185 563 42 0 0 0 0 0 0 0 0 0 0 0 0 0 0 0 0 0 0 0 0 0 0 0 0 0 0 0 0 0 0
1426 1872 1996 2243 2347 2434 2285 1882 1351 1158 573 77 0 0 0 0 0 0 0 0 0 0 0 0 0 0 0 0 0 0 0 0 0 0 0 0 0 0 0 0 0 0 0
500 1033 1532 1711 1579 1947 2054 1620 1220 920 336 0 0 0 0 0 0 0 0 0 0 0 0 0 0 0 0 0 0 0 0 0 0 0 0 0 0 0 0 0 0 0 0
4 261 744 1293 1507 1653 1696 1297 1014 476 10 0 0 0 0 0 0 0 0 0 0 0 0 0 0 0 0 0 0 0 0 0 0 0 0 0 0 0 0 0 0 0 0
4 5 7 291 868 1077 1051 981 660 314 3 0 0 0 0 0 0 0 0 0 0 0 0 0 0 0 0 0 0 0 0 0 0 0 0 0 0 0 0 0 0 0 0
CIN
-324 -321 -391 -360 -304 -310 -343 -373 -372 -365 -334 -258 -197 -150 -157 -189 -271 -302 -355 -154 0 0 0 0 0 0 0 0 0 0 0 0 0 0 0 0 0 0 0 0 0 0 0
-376 -409 -382 -409 -417 -462 -480 -452 -461 -436 -321 -227 -185 -176 -181 -235 -301 -320 -367 -481 0 0 0 0 0 0 0 0 0 0 0 0 0 0 0 0 0 0 0 0 0 0 0
-365 -420 -443 -450 -442 -454 -504 -102 -538 -471 -360 -232 -233 -217 -218 -236 -305 -312 -339 -486 0 0 0 0 0 0 0 0 0 0 0 0 0 0 0 0 0 0 0 0 0 0 0
-376 -381 -400 -420 -437 -467 -483 -497 -491 -473 -474 -362 -248 -248 -237 -235 -314 -313 -374 -514 0 0 0 0 0 0 0 0 0 0 0 0 0 0 0 0 0 0 0 0 0 0 0
-397 -398 -403 -385 -359 -369 -406 -441 -448 -439 -439 -454 -399 -303 -230 -239 -326 -364 -457 -523 0 0 0 0 0 0 0 0 0 0 0 0 0 0 0 0 0 0 0 0 0 0 0
-375 -360 -344 -334 -354 -357 -371 -391 -426 -439 -455 -402 -352 -295 -266 -274 -339 -413 -471 -587 0 0 0 0 0 0 0 0 0 0 0 0 0 0 0 0 0 0 0 0 0 0 0
-346 -332 -323 -321 -342 -371 -391 -393 -444 -450 -446 -388 -352 -312 -303 -315 -372 -446 -500 -622 0 0 0 0 0 0 0 0 0 0 0 0 0 0 0 0 0 0 0 0 0 0 0
-341 -328 -323 -319 -328 -364 -381 -418 -437 -441 -450 -437 -369 -344 -331 -362 -407 -470 -552 -696 0 0 0 0 0 0 0 0 0 0 0 0 0 0 0 0 0 0 0 0 0 0 0
-349 -346 -325 -334 -337 -348 -389 -430 -456 -437 -433 -440 -388 -370 -379 -407 -467 -522 -667 -733 0 0 0 0 0 0 0 0 0 0 0 0 0 0 0 0 0 0 0 0 0 0 0
-377 -355 -339 -333 -347 -384 -413 -442 -438 -435 -430 -419 -410 -409 -396 -423 -591 -628 -728 0 0 0 0 0 0 0 0 0 0 0 0 0 0 0 0 0 0 0 0 0 0 0 0
-399 -359 -355 -352 -364 -395 -421 -429 -428 -426 -391 -401 -415 -473 -452 -497 -629 -757 0 0 0 0 0 0 0 0 0 0 0 0 0 0 0 0 0 0 0 0 0 0 0 0 0
-412 -415 -406 -403 -409 -411 -422 -444 -437 -424 -405 -407 -433 -505 -571 -693 -726 -910 0 0 0 0 0 0 0 0 0 0 0 0 0 0 0 0 0 0 0 0 0 0 0 0 0
-434 -443 -437 -435 -448 -447 -460 -440 -434 -429 -416 -395 -454 -478 -630 -774 -871 -1049 0 0 0 0 0 0 0 0 0 0 0 0 0 0 0 0 0 0 0 0 0 0 0 0 0
-422 -429 -460 -476 -491 -499 -489 -466 -441 -443 -440 -408 -481 -558 -672 -813 -912 -557 0 0 0 0 0 0 0 0 0 0 0 0 0 0 0 0 0 0 0 0 0 0 0 0 0
-438 -439 -470 -495 -527 -491 -477 -485 -475 -476 -465 -443 -465 -568 -770 -751 -917 -889 0 0 0 0 0 0 0 0 0 0 0 0 0 0 0 0 0 0 0 0 0 0 0 0 0
-384 -416 -425 -446 -473 -484 -461 -476 -738 -674 -463 -432 -449 -609 -773 -719 -1118 -1046 0 0 0 0 0 0 0 0 0 0 0 0 0 0 0 0 0 0 0 0 0 0 0 0 0
-334 -348 -385 -395 -397 -411 -417 -410 -411 -733 -702 -499 -441 -619 -682 -700 -1002 -416 0 0 0 0 0 0 0 0 0 0 0 0 0 0 0 0 0 0 0 0 0 0 0 0 0
-313 -320 -313 -326 -334 -326 -368 -352 -330 -404 -455 -464 -853 -724 -893 -738 -471 0 0 0 0 0 0 0 0 0 0 0 0 0 0 0 0 0 0 0 0 0 0 0 0 0 0
-196 -207 -222 -213 -253 -254 -264 -270 -279 -336 -408 -524 -768 -806 -127 0 0 0 0 0 0 0 0 0 0 0 0 0 0 0 0 0 0 0 0 0 0 0 0 0 0 0 0
-139 -140 -154 -161 -167 -179 -181 -233 -244 -339 -425 -631 -476 -626 0 0 0 0 0 0 0 0 0 0 0 0 0 0 0 0 0 0 0 0 0 0 0 0 0 0 0 0 0
-91 -71 -84 -96 -111 -139 -158 -175 -277 -335 -409 -457 -483 -486 0 0 0 0 0 0 0 0 0 0 0 0 0 0 0 0 0 0 0 0 0 0 0 0 0 0 0 0 0
-141 -65 -59 -60 -76 -102 -139 -220 -360 -352 -379 -562 -876 0 0 0 0 0 0 0 0 0 0 0 0 0 0 0 0 0 0 0 0 0 0 0 0 0 0 0 0 0 0
-198 -127 -111 -89 -101 -104 -148 -233 -344 -357 -519 -744 0 0 0 0 0 0 0 0 0 0 0 0 0 0 0 0 0 0 0 0 0 0 0 0 0 0 0 0 0 0 0
-373 -234 -141 -111 -151 -128 -127 -227 -312 -379 -558 0 0 0 0 0 0 0 0 0 0 0 0 0 0 0 0 0 0 0 0 0 0 0 0 0 0 0 0 0 0 0 0
-32 -412 -266 -136 -124 -123 -120 -222 -295 -463 -625 0 0 0 0 0 0 0 0 0 0 0 0 0 0 0 0 0 0 0 0 0 0 0 0 0 0 0 0 0 0 0 0
0 0 -191 -365 -210 -170 -170 -185 -271 -411 -163 0 0 0 0 0 0 0 0 0 0 0 0 0 0 0 0 0 0 0 0 0 0 0 0 0 0 0 0 0 0 0 0
Wind_Speed
37 38 38 39 37 35 32 29 26 24 21 17 13 12 12 13 14 16 15 16 17 18 18 19 21 21 23 24 24 24 24 22 20 19 19 20 20 23 23 22 25 24 23
37 35 37 37 37 36 34 32 29 25 23 17 11 10 10 10 11 13 13 13 14 15 16 18 19 20 21 22 22 23 23 22 21 21 20 19 18 21 22 23 25 25 25
33 33 35 36 36 36 35 32 30 28 24 18 13 9 8 8 9 10 11 10 11 12 13 15 16 18 19 21 22 23 22 22 21 21 22 19 19 20 23 23 26 28 25
29 31 33 35 36 35 36 34 31 29 25 21 14 12 10 9 8 8 9 9 10 11 12 13 14 16 17 19 21 22 22 22 22 23 22 21 21 20 20 22 27 28 28
28 30 33 33 32 32 35 35 32 30 27 22 20 16 12 9 7 6 7 7 7 9 10 12 12 13 16 17 19 21 21 21 22 23 23 22 22 22 23 21 22 25 27
27 31 28 29 30 31 34 34 31 30 26 22 21 17 14 10 8 6 5 5 5 5 6 8 10 11 13 15 17 19 19 20 21 22 22 22 21 20 20 22 23 24 26
25 24 27 28 32 31 33 32 34 26 28 24 23 20 16 12 10 7 4 3 2 3 3 6 8 10 11 13 15 18 19 19 19 20 21 21 21 20 21 21 20 23 23
22 23 25 27 30 29 31 36 32 28 29 25 24 21 17 12 10 7 3 1 1 1 2 4 7 9 10 13 16 19 20 20 20 20 19 19 17 16 17 18 20 21 22
21 22 25 26 28 30 36 36 26 29 28 25 22 19 16 11 8 6 5 2 2 2 1 1 5 8 9 12 16 19 21 20 20 19 20 20 18 18 18 20 25 24 25
21 24 23 25 29 33 40 34 29 30 28 23 19 17 14 11 10 9 5 3 3 3 2 2 2 6 8 10 14 18 20 21 22 22 24 23 22 22 22 20 23 24 24
17 18 20 24 31 42 38 28 29 27 25 22 18 15 14 11 9 8 6 4 5 5 4 5 5 4 7 8 12 15 18 19 21 22 22 21 21 21 22 23 22 22 24
15 17 21 30 37 41 31 27 28 24 25 22 16 14 12 11 10 10 9 6 7 6 4 3 3 2 3 6 10 13 16 17 20 22 23 24 26 25 23 22 22 22 21
13 19 32 36 45 34 25 26 24 22 24 23 18 15 13 12 13 12 11 10 8 6 6 5 3 1 2 4 7 11 14 16 18 20 22 24 24 23 24 24 24 24 25
18 30 28 27 20 18 18 19 20 22 22 21 19 17 16 17 14 13 13 12 10 8 7 6 6 3 2 4 9 10 12 14 16 18 21 22 24 25 27 25 25 25 25
19 15 15 18 19 19 20 20 22 23 22 21 21 20 19 19 16 15 13 11 10 9 9 7 6 2 2 3 5 8 11 14 15 16 19 23 25 26 27 27 27 25 26
20 16 15 15 17 18 20 21 27 24 22 22 21 22 21 23 16 14 14 12 9 8 8 4 5 4 4 3 3 7 12 13 13 15 18 23 24 26 27 27 27 26 28
18 20 26 22 27 27 24 24 24 31 29 21 21 20 19 18 15 13 12 11 11 8 10 6 6 6 5 3 3 6 10 11 13 15 20 22 23 25 27 28 26 26 29
30 25 24 25 24 25 26 25 26 24 22 26 21 19 20 17 16 15 12 8 10 11 11 7 6 5 5 3 4 6 9 11 13 16 20 21 23 24 28 28 25 27 30
29 28 27 30 30 31 31 30 29 28 27 25 22 22 21 19 16 14 13 14 12 12 10 8 6 5 5 5 3 4 8 10 12 16 19 21 23 25 26 28 25 27 30
32 34 33 32 33 33 32 30 29 28 27 25 24 23 22 19 18 17 14 15 15 13 11 8 6 4 4 4 2 5 8 11 11 14 17 20 23 24 25 28 26 28 30
36 36 35 35 35 32 29 28 29 27 26 25 24 22 20 21 20 17 16 14 12 12 9 7 6 4 5 4 1 5 8 9 10 11 15 18 21 23 26 26 25 27 29
34 35 34 32 31 29 27 25 24 24 23 23 22 21 19 21 21 19 17 16 14 10 7 7 7 6 5 3 2 5 6 7 8 10 16 18 21 21 24 25 24 25 28
35 33 32 32 30 26 24 23 21 21 20 19 19 18 17 19 19 19 18 15 12 12 8 6 7 8 6 3 2 3 4 5 7 10 13 16 20 21 23 24 20 24 28
34 35 35 36 31 26 23 21 19 17 16 16 16 17 16 16 16 17 18 15 14 10 9 8 8 8 5 3 1 3 5 6 7 10 12 15 18 20 22 22 20 23 27
30 31 32 33 29 25 23 21 19 18 17 16 15 16 15 13 13 15 15 14 13 11 10 10 11 10 6 3 0 3 5 6 8 10 12 15 18 19 22 22 20 24 27
29 29 29 30 28 26 23 21 20 18 17 16 15 14 12 11 10 11 12 12 12 12 13 14 12 8 4 3 4 5 5 6 7 10 12 14 17 19 21 22 21 23 26
Wind_Direction
179 181 183 186 188 189 190 193 191 196 201 192 145 113 96 82 79 66 67 64 61 62 64 60 50 46 36 34 34 32 32 34 30 29 29 27 25 18 15 12 6 5 5
180 180 183 185 188 191 194 197 198 197 197 174 131 121 106 91 85 69 70 73 72 67 65 62 57 52 45 41 38 34 34 34 31 26 27 26 26 20 15 10 7 7 6
179 180 182 186 188 191 195 197 198 198 194 183 166 145 132 111 109 84 79 83 80 72 70 63 57 55 50 44 41 36 36 35 35 29 25 30 27 23 16 16 11 6 11
181 181 183 185 188 190 196 199 199 199 197 192 179 173 160 142 122 89 84 86 75 69 68 61 56 52 50 49 42 39 38 35 33 28 26 26 24 22 23 18 12 9 2
184 184 186 186 187 189 195 198 200 201 201 197 195 192 180 163 143 104 85 79 77 69 61 54 54 52 47 48 42 37 34 33 29 25 23 21 19 20 19 18 14 9 5
186 186 187 186 187 189 194 197 197 201 199 192 195 193 191 183 172 155 103 88 83 82 61 52 48 47 44 42 38 34 31 28 25 22 20 18 18 18 19 15 11 6 3
189 191 188 188 189 190 193 195 200 197 201 197 201 200 199 195 187 179 146 107 91 88 62 40 34 33 33 33 30 26 25 25 22 21 18 18 15 16 13 9 7 7 4
196 194 190 189 190 191 193 200 199 199 203 201 204 204 204 205 199 193 185 162 58 49 25 17 13 16 22 23 21 18 19 20 21 20 16 11 9 8 11 9 9 6 4
199 196 191 191 191 192 197 200 197 201 204 205 205 206 209 216 212 209 207 220 250 242 322 313 3 9 11 15 14 14 15 16 18 18 15 13 18 18 16 15 9 8 2
200 193 194 192 192 194 201 200 200 204 208 207 210 212 218 228 223 217 222 279 268 266 297 324 357 4 7 8 9 11 12 14 16 16 16 21 21 19 18 15 10 5 4
205 208 204 195 193 202 201 197 200 205 207 210 216 222 226 237 242 240 246 254 285 290 303 339 349 351 2 5 6 9 9 14 15 15 16 19 19 20 19 15 12 9 7
213 209 198 193 197 203 197 199 202 205 210 214 223 232 245 263 257 246 249 266 290 292 268 294 311 321 353 1 2 6 9 12 12 11 11 11 11 14 14 13 12 13 12
215 193 191 195 209 198 198 203 208 212 215 219 229 238 257 274 278 262 258 265 264 268 288 282 310 272 317 347 354 1 6 9 8 8 7 7 9 11 10 12 13 13 9
196 193 194 194 204 233 232 221 222 223 226 230 236 246 273 282 278 274 275 281 298 313 310 298 317 286 316 337 350 355 2 5 5 5 6 6 8 9 8 13 11 10 11
198 223 235 212 216 228 232 240 237 237 238 248 254 264 269 276 267 270 269 267 259 279 320 333 326 312 291 332 339 353 359 1 1 3 3 4 5 6 8 10 11 12 12
258 248 223 233 255 255 259 259 276 273 259 246 264 268 273 285 281 264 259 255 252 250 293 259 278 242 258 290 320 346 353 355 1 4 3 4 5 5 6 8 13 15 12
217 261 268 268 271 273 272 271 274 285 283 270 262 270 272 275 266 261 261 245 240 231 296 270 250 238 257 273 324 343 354 -0 5 4 1 4 6 7 8 10 14 15 12
266 268 270 273 274 277 277 278 281 282 279 282 282 272 277 269 271 267 262 240 244 254 279 234 251 246 265 269 323 348 360 5 4 2 3 6 7 8 8 10 14 14 12
272 273 273 277 278 279 279 280 282 285 286 286 284 284 283 277 269 260 249 246 234 265 265 236 238 231 255 278 323 350 1 0 2 4 5 5 6 8 10 12 15 16 14
277 276 278 279 280 280 278 279 281 284 285 284 282 281 282 280 274 267 259 263 269 277 264 237 264 223 286 298 320 356 358 358 4 6 7 6 7 10 12 12 16 15 15
279 278 279 281 280 280 278 277 280 283 284 283 283 283 275 269 267 258 245 246 249 270 255 242 264 254 302 294 303 352 355 2 7 11 9 10 12 11 12 15 18 20 19
286 283 282 282 283 280 278 278 281 282 282 283 286 287 277 275 266 254 243 254 264 261 250 250 258 269 293 251 290 346 1 9 15 20 13 18 15 16 16 18 22 23 21
288 284 284 285 284 283 280 279 282 282 282 283 286 289 284 279 267 252 248 254 257 269 261 256 260 278 294 257 317 0 16 24 34 27 22 20 19 16 16 22 29 28 24
290 285 282 281 285 280 277 277 280 282 284 286 287 290 287 280 265 248 247 249 255 256 259 273 273 286 282 282 1 35 33 50 43 29 26 26 19 22 24 28 36 33 29
300 296 290 284 281 277 275 275 275 281 285 289 290 292 289 280 272 256 244 244 244 255 262 271 283 283 254 245 47 61 76 70 47 36 36 27 22 21 27 34 41 34 32
307 306 302 295 287 281 276 273 274 279 284 287 289 291 288 282 268 252 238 233 238 248 270 273 281 269 228 231 138 99 84 70 49 42 42 36 27 23 34 38 46 40 36